Other Surface Observations
Issued by NWS Charleston, SC

Home | Current Version | Previous Version | Text Only | Print | Product List | Glossary On
Versions: 1 2 3 4 5 6 7 8 9 10 11 12 13 14 15 16 17 18 19 20 21 22 23 24 25 26 27 28 29 30 31 32 33 34 35 36 37 38 39 40 41 42 43 44 45 46 47 48 49 50
247
SXUS52 KCHS 101612
OSOCHS

MARINE OBSERVATIONS
NATIONAL WEATHER SERVICE CHARLESTON SC
1100 AM EST WED FEB 10 2016

...DOWNTOWN CHARLESTON AND HARBOR...

CITY           SKY/WX    TMP DP  RH WIND       PRES   REMARKS
WATERFRONT PRK   N/A     34  19  54 W9        29.90S WCI  27

...LAKE MOULTRIE...

CITY           SKY/WX    TMP DP  RH WIND       PRES   REMARKS
PINOPOLIS        N/A     34  19  55 W16       29.96F WCI  23

...LAKE AND SUPPLEMENTAL COASTAL OBSERVATIONS...

STATION/POSITION TIME  TEMP    WIND        PRES    WAVE   SWELL
                       AIR SEA DIR/SP/G            HT/PER HT/PER/DIR
                 (UTC) (F)     (DEG/KT/KT) (MB)    (FT/S) (FT/S/D)
FORT PULASKI     1500   33 51  280/ 21/ 25 1019.9R
SAPELO ISLAND    1500   36     280/ 18     1020.0S
WINYAH BAY       1445   33     280/ 10     1015.0
LAKE MURRAY      1500   30     290/  9/ 19 1016.6R
ACE BASIN NERRS  NOT AVBL


...C-MAN AND BUOY OBSERVATIONS...

STATION/POSITION TIME  TEMP    WIND        PRES    WAVE   SWELL
                       AIR SEA DIR/SP/G            HT/PER HT/PER/DIR
                 (UTC) (F)     (DEG/KT/KT) (MB)    (FT/S) (FT/S/D)
BUOY 41004       1550   38 63  270/ 21/ 27 1016.7R   7/ 7   2/14
BUOY 41008       1550   38 54  280/ 21/ 27 1019.8R   5/ 5
FOLLY BEACH CMAN 1600   36     270/  8/ 11 1017.8F
CAPERS NS BUOY   1508   34     280/ 17/ 23 1017.1S
FRIPP NS BUOY    1500   36     300/ 19/ 23 1018.2S
5E ST. MARYS GA  1521      55                N/A     3/17   2/ 70/17


STATION/POSITION TIME  TEMP    WIND        PRES    WAVE   SWELL
                       AIR SEA DIR/SP/G            HT/PER HT/PER/DIR
                 (UTC) (F)     (DEG/KT/KT) (MB)    (FT/S) (FT/S/D)
FRYING PAN BUOY  1500   39 60  270/ 17/ 23 1015.4F
BUOY 41025       1550   37 72  290/ 21/ 25 1013.0R   8/ 7   3/ 70/13
CAPE LOOKOUT NC  NOT AVBL
BUOY 41002       1550   54 68  280/ 31/ 39   N/A    19/11  11/270/11
BUOY 41010       1520   57 72              1021.2R
ST AUGUSTINE FL  1600   47 55  290/ 20/ 27 1022.9F

$$




USA.gov is the U.S. government's official web portal to all federal, state and local government web resources and services.